This is the latest recevied weather packets stored in our database for station/object YO8SDE-8. If no packets are shown the sender has not sent any weather packets the latest 10 day(s).
| Time | Temp. | Humidity | Pressure | Rain* | Wind** | Luminosity | Snow |
|---|---|---|---|---|---|---|---|
| 1777656065 | 11.67° C | 45% | 1012.1 hPa | 0 mm | - | - | - |
| 1777655765 | 11.67° C | 45% | 1012.2 hPa | 0 mm | - | - | - |
| 1777655465 | 12.22° C | 44% | 1012.1 hPa | 0 mm | - | - | - |
| 1777655165 | 12.22° C | 44% | 1012 hPa | 0 mm | - | - | - |
| 1777654865 | 12.22° C | 43% | 1012.1 hPa | 0 mm | - | - | - |
| 1777654565 | 12.22° C | 43% | 1011.9 hPa | 0 mm | - | - | - |
| 1777654265 | 12.22° C | 42% | 1011.9 hPa | 0 mm | - | - | - |
| 1777653965 | 12.22° C | 42% | 1011.9 hPa | 0 mm | - | - | - |
| 1777653665 | 12.22° C | 41% | 1011.8 hPa | 0 mm | - | - | - |
| 1777653365 | 12.78° C | 40% | 1011.8 hPa | 0 mm | - | - | - |
| 1777653065 | 12.78° C | 40% | 1011.7 hPa | 0 mm | - | - | - |
| 1777652765 | 12.78° C | 40% | 1011.7 hPa | 0 mm | - | - | - |
| 1777652465 | 12.78° C | 39% | 1011.6 hPa | 0 mm | - | - | - |
| 1777652165 | 12.78° C | 39% | 1011.7 hPa | 0 mm | - | - | - |
| 1777651865 | 12.78° C | 39% | 1011.8 hPa | 0 mm | - | - | - |
| 1777651565 | 12.78° C | 38% | 1011.9 hPa | 0 mm | - | - | - |
| 1777651265 | 13.33° C | 38% | 1011.9 hPa | 0 mm | - | - | - |
| 1777650965 | 12.78° C | 39% | 1011.9 hPa | 0 mm | - | - | - |
| 1777650665 | 12.78° C | 38% | 1011.9 hPa | 0 mm | - | - | - |
| 1777650365 | 12.78° C | 38% | 1012 hPa | 0 mm | - | - | - |
| 1777650065 | 13.33° C | 38% | 1012 hPa | 0 mm | - | - | - |
| 1777649765 | 13.33° C | 37% | 1012 hPa | 0 mm | - | - | - |
| 1777649465 | 13.89° C | 36% | 1012.1 hPa | 0 mm | - | - | - |
| 1777649165 | 14.44° C | 36% | 1012.1 hPa | 0 mm | - | - | - |
| 1777648865 | 15° C | 34% | 1012.2 hPa | 0 mm | - | - | - |
* Rain latest hour (hover to see other rain measurements)
** Current wind speed in m/s (hover to see current wind gust speed)